SL-24 R/B, 40541

Orbit data source: Space-Track

SL-24 R/B, 40541 is space debris in SSO originally from a launch on Wed, 25 Mar 2015 UTC launched from the Orenburg, Russia (OREN). Debris objects in space refer to the collection of defunct objects orbiting the Earth. Examples of debris include non-operational satellites, rocket bodies, and fragments generated from explosions, collisions, or faulty payload assembly.

Loading next visibility...
Identifier
40541, 2015-014C
Orbit
SSO
Country
Flag of CISCIS
Related business
Manufacturer
Yuzhnoe
Mission
Spacecraft
Bus & Motor
15A18-BR, Unknown motor
Mass
~1,000 kg wet, ~1,000 kg dry
Launch date (UTC)
2015-03-25 (11 years ago)
Launch vehicle
Unknown
Launch site
Orenburg, Russia (OREN)
Object type
Payload
Rocket body
Debris
Shape & HBR
Cyl, 1.5 m
Radar Cross Section
10.603 m², Large (>1 m²)

Expand to show TLE details & history
Last TLE update: 15 hours ago

TLE from 15 hours ago
0 SL-24 R/B
1 40541U 15014C   25351.85994491  .00000269  00000-0  73632-4 0  9992
2 40541  97.3428 200.9823 0611620  35.7737 328.2829 13.77626985538825
Epoch: 2025-12-17T20:38Z
TLE epoch observation values (Epoch: 2025-12-17T20:38:19.240Z)
Latitude
-0.00005°
Longitude
164.67839°
Altitude
600.944 km
Speed
7.749 km/s
True Right ascension
13h 23m 55s
True Declination
0° 00' 00"
Sunlit
Object was in daylight at epoch
Visualization orbit readout
Latitude
Unknown
Longitude
Unknown
Altitude
Unknown
Speed
Unknown
Apparent Right ascension
Unknown
Apparent Declination
Unknown
Sunlit
N/A
Visualization observer readout
Local Sidereal Time
10:17:34
Azimuth
Unknown
Elevation
Unknown
Doppler factor
Unknown
Orbital elements
Apogee altitude
1,418.849 km
Perigee altitude
520.062 km
Semi-major axis
7,347.593 km
Eccentricity
0.06116
Inclination
97.3428°
RAAN
200.9823°
Arg. of periapsis
35.7737°
True anomaly
324.34588°
Mean anomaly
328.2829°
Eccentric anomaly
326.34061°
Mean motion
3.44608 °/min
Orbital period
104.47 mins
BSTAR
0.000073632
Loading maneuver chart data...
Computing Atmospheric mass density...
Loading historical data...
Loading historical data...
Loading historical data...
Loading historical data...
Loading historical data...
Loading historical data...
Loading historical data...
Other satellites on launch #14 in the year 2015 (2015-03-25 UTC)

Documentation

Showing up to 5 results
|